User: anonymous
Location: Caltech
(34.1382°N, 118.1253°W)
Time: 10:11:50
(UTC-07:00)
Language:

ADEOS II - Orbit

View from above orbital plane
View from above orbital plane
View from above satellite
View from above satellite

Ground track
Ground track

The orbit data is extracted from the following two-line orbital elements,

1 27597U 02056A   14211.50035538  .00000115  00000-0  64008-4 0  3578
2 27597 098.2755 217.0883 0001684 138.5283 333.7708 14.26831562605275
Epoch (UTC): 30 July 2014 12:00:30
Eccentricity: 0.0001684
inclination: 98.2755°
perigee height: 801 km
apogee height: 803 km
right ascension of ascending node: 217.0883°
argument of perigee: 138.5283°
revolutions per day: 14.26831562
mean anomaly at epoch: 333.7708°
orbit number at epoch: 60527

The dashed part of the orbit path shows where the satellite is in the earth's shadow,  

DLR